CZ-3B DEB, 39337

Orbit data source: Space-Track

CZ-3B DEB, 39337 is space debris in HEO originally from a launch on Sat, 04 Sep 2010 UTC launched from the Xichang Space Center, China (XSC). Debris objects in space refer to the collection of defunct objects orbiting the Earth. Examples of debris include non-operational satellites, rocket bodies, and fragments generated from explosions, collisions, or faulty payload assembly.

Loading next visibility...
Identifier
39337, 2010-042J
Orbit
HEO
Country
Flag of CNCN / PRC
Related business
Manufacturer
CALT
Mission
Spacecraft
Bus & Motor
Unknown
Mass
Unknown
Launch date (UTC)
2010-09-04 (16 years ago)
Launch vehicle
Unknown
Launch site
Xichang Space Center, China (XSC)
Object type
Payload
Rocket body
Debris
Shape & HBR
Unknown shape, 0.3 m
Radar Cross Section
Medium (>0.1 m² and <1 m²)

Expand to show TLE details & history
Last TLE update: 1 week ago

TLE from 1 week ago
0 CZ-3B DEB
1 39337U 10042J   26227.85076247  .00000138  00000-0  21850-2 0  9990
2 39337  24.6228  96.7003 7534451 324.7791   3.4997  1.84296151 83806
Epoch: 2026-08-15T20:25Z
TLE epoch observation values (Epoch: 2026-08-15T20:25:05.877Z)
Latitude
0.0022°
Longitude
-173.78687°
Altitude
1,181.08 km
Speed
9.553 km/s
True Right ascension
06h 26m 58s
True Declination
0° 00' 08"
Sunlit
Object was in daylight at epoch
Visualization orbit readout
Latitude
Unknown
Longitude
Unknown
Altitude
Unknown
Speed
Unknown
Apparent Right ascension
Unknown
Apparent Declination
Unknown
Sunlit
N/A
Visualization observer readout
Local Sidereal Time
02:28:46
Azimuth
Unknown
Elevation
Unknown
Doppler factor
Unknown
Orbital elements
Apogee altitude
42,902.895 km
Perigee altitude
551.353 km
Semi-major axis
28,105.261 km
Eccentricity
0.75345
Inclination
24.6228°
RAAN
96.7003°
Arg. of periapsis
324.7791°
True anomaly
35.74422°
Mean anomaly
3.4997°
Eccentric anomaly
13.78883°
Mean motion
0.46064 °/min
Orbital period
781.52 mins
BSTAR
0.002185
Loading maneuver chart data...
Computing Atmospheric mass density...
Loading historical data...
Loading historical data...
Loading historical data...
Loading historical data...
Loading historical data...
Loading historical data...
Loading historical data...

Documentation

Showing up to 5 results
|